QPF
0.00 0.00 0.00 0.00 0.01 0.01 0.01 0.01 0.00 0.00 0.00 0.01 0.01 0.01 0.01 0.00 0.00 0.01 0.01 0.02 0.02 0.02 0.02 0.03 0.04 0.03 0.02 0.02 0.02 0.02 0.01 0.01 0.02 0.02 0.03 0.03 0.02 0.04 0.05 0.06 0.06 0.07 0.06 0.06 0.05 0.04 0.05 0.07 0.08
0.00 0.01 0.01 0.01 0.02 0.01 0.01 0.01 0.00 0.00 0.00 0.00 0.00 0.00 0.01 0.01 0.00 0.00 0.01 0.02 0.02 0.02 0.01 0.01 0.02 0.02 0.01 0.01 0.01 0.02 0.02 0.01 0.02 0.03 0.02 0.02 0.03 0.04 0.04 0.05 0.05 0.05 0.05 0.04 0.04 0.04 0.05 0.06 0.07
0.00 0.01 0.01 0.01 0.02 0.01 0.01 0.01 0.00 0.00 0.00 0.00 0.00 0.01 0.01 0.01 0.01 0.00 0.00 0.01 0.01 0.01 0.00 0.01 0.01 0.01 0.01 0.01 0.01 0.02 0.02 0.02 0.02 0.02 0.02 0.03 0.04 0.04 0.04 0.04 0.05 0.04 0.04 0.04 0.05 0.04 0.05 0.06 0.07
0.00 0.01 0.01 0.01 0.02 0.00 0.00 0.00 0.00 0.00 0.00 0.00 0.00 0.01 0.01 0.01 0.01 0.00 0.00 0.00 0.00 0.00 0.00 0.01 0.02 0.01 0.01 0.01 0.01 0.01 0.01 0.02 0.01 0.02 0.03 0.04 0.05 0.04 0.03 0.02 0.02 0.02 0.03 0.04 0.04 0.04 0.04 0.04 0.05
0.00 0.00 0.01 0.01 0.01 0.01 0.01 0.00 0.00 0.00 0.00 0.00 0.00 0.00 0.01 0.02 0.01 0.01 0.01 0.01 0.00 0.01 0.01 0.01 0.02 0.01 0.00 0.01 0.01 0.02 0.02 0.02 0.02 0.02 0.05 0.05 0.05 0.03 0.02 0.01 0.02 0.02 0.02 0.03 0.04 0.03 0.04 0.06 0.05
0.01 0.00 0.01 0.01 0.01 0.01 0.01 0.01 0.00 0.00 0.00 0.00 0.00 0.00 0.01 0.03 0.02 0.02 0.01 0.01 0.01 0.01 0.01 0.01 0.02 0.01 0.01 0.02 0.02 0.02 0.02 0.02 0.02 0.02 0.03 0.02 0.03 0.03 0.02 0.02 0.02 0.02 0.02 0.03 0.04 0.04 0.05 0.05 0.06
0.01 0.01 0.01 0.01 0.02 0.01 0.01 0.01 0.00 0.00 0.00 0.00 0.00 0.00 0.01 0.04 0.03 0.02 0.01 0.01 0.01 0.01 0.02 0.01 0.01 0.02 0.03 0.03 0.02 0.01 0.01 0.01 0.02 0.02 0.03 0.02 0.02 0.03 0.02 0.02 0.01 0.01 0.02 0.03 0.04 0.04 0.04 0.04 0.05
0.00 0.01 0.01 0.01 0.01 0.01 0.01 0.01 0.00 0.00 0.00 0.00 0.00 0.00 0.01 0.02 0.03 0.02 0.02 0.01 0.01 0.01 0.02 0.02 0.01 0.01 0.02 0.02 0.02 0.02 0.02 0.01 0.01 0.02 0.02 0.03 0.02 0.02 0.02 0.02 0.01 0.01 0.01 0.02 0.03 0.04 0.04 0.04 0.05
0.00 0.00 0.00 0.00 0.00 0.00 0.00 0.00 0.00 0.00 0.00 0.00 0.00 0.00 0.00 0.00 0.01 0.02 0.02 0.02 0.02 0.02 0.02 0.01 0.01 0.01 0.01 0.01 0.01 0.02 0.02 0.02 0.02 0.02 0.02 0.02 0.01 0.01 0.01 0.02 0.02 0.02 0.02 0.02 0.03 0.04 0.05 0.04 0.05
0.00 0.00 0.00 0.00 0.00 0.00 0.00 0.00 0.00 0.00 0.00 0.00 0.00 0.00 0.00 0.01 0.01 0.02 0.02 0.02 0.02 0.03 0.03 0.02 0.01 0.02 0.01 0.01 0.01 0.01 0.01 0.01 0.02 0.02 0.01 0.01 0.01 0.00 0.01 0.02 0.03 0.05 0.05 0.04 0.03 0.04 0.05 0.03 0.03
0.00 0.00 0.00 0.00 0.00 0.00 0.00 0.00 0.00 0.00 0.01 0.01 0.00 0.01 0.01 0.00 0.01 0.02 0.02 0.02 0.02 0.03 0.03 0.02 0.02 0.02 0.03 0.03 0.02 0.01 0.01 0.01 0.02 0.03 0.03 0.02 0.01 0.01 0.01 0.02 0.02 0.03 0.04 0.03 0.03 0.03 0.03 0.03 0.03
0.00 0.00 0.00 0.00 0.00 0.00 0.00 0.00 0.01 0.01 0.01 0.01 0.01 0.00 0.01 0.01 0.02 0.04 0.05 0.04 0.03 0.02 0.02 0.01 0.02 0.03 0.04 0.03 0.03 0.02 0.01 0.02 0.03 0.03 0.03 0.02 0.01 0.00 0.01 0.01 0.01 0.02 0.02 0.02 0.02 0.01 0.03 0.04 0.02
0.00 0.00 0.00 0.00 0.00 0.00 0.00 0.00 0.01 0.04 0.01 0.02 0.01 0.01 0.01 0.02 0.02 0.03 0.06 0.06 0.05 0.03 0.01 0.01 0.02 0.03 0.04 0.04 0.05 0.04 0.02 0.02 0.02 0.03 0.03 0.02 0.03 0.02 0.01 0.01 0.02 0.02 0.03 0.02 0.01 0.02 0.03 0.03 0.02
0.00 0.00 0.00 0.00 0.00 0.00 0.00 0.00 0.01 0.04 0.03 0.03 0.02 0.01 0.01 0.01 0.02 0.02 0.03 0.03 0.03 0.03 0.02 0.02 0.02 0.02 0.04 0.06 0.06 0.05 0.03 0.04 0.04 0.03 0.02 0.03 0.04 0.03 0.02 0.02 0.03 0.02 0.02 0.02 0.03 0.03 0.03 0.02 0.03
0.00 0.00 0.00 0.00 0.00 0.00 0.00 0.00 0.00 0.01 0.04 0.04 0.03 0.02 0.01 0.01 0.01 0.01 0.02 0.03 0.04 0.04 0.04 0.03 0.02 0.03 0.03 0.04 0.05 0.07 0.05 0.05 0.05 0.04 0.03 0.03 0.03 0.03 0.03 0.03 0.03 0.03 0.04 0.04 0.05 0.05 0.04 0.03 0.04
0.00 0.00 0.00 0.00 0.00 0.00 0.00 0.00 0.00 0.02 0.04 0.03 0.03 0.02 0.01 0.01 0.01 0.02 0.03 0.05 0.05 0.04 0.04 0.04 0.02 0.02 0.02 0.04 0.04 0.06 0.07 0.07 0.05 0.04 0.03 0.03 0.04 0.04 0.03 0.03 0.03 0.03 0.05 0.06 0.06 0.05 0.05 0.04 0.04
0.00 0.00 0.00 0.00 0.00 0.00 0.00 0.00 0.01 0.02 0.01 0.01 0.02 0.01 0.00 0.00 0.01 0.02 0.02 0.04 0.08 0.07 0.04 0.03 0.02 0.01 0.02 0.03 0.04 0.05 0.05 0.05 0.05 0.04 0.06 0.06 0.06 0.04 0.04 0.04 0.03 0.03 0.03 0.03 0.03 0.03 0.03 0.04 0.06
0.00 0.00 0.00 0.00 0.00 0.00 0.00 0.00 0.01 0.01 0.00 0.01 0.01 0.01 0.00 0.00 0.01 0.02 0.03 0.04 0.09 0.11 0.07 0.03 0.02 0.01 0.01 0.02 0.03 0.04 0.05 0.05 0.06 0.06 0.05 0.06 0.05 0.04 0.04 0.04 0.04 0.03 0.03 0.02 0.02 0.02 0.03 0.04 0.06
0.00 0.00 0.00 0.00 0.00 0.00 0.00 0.00 0.00 0.00 0.00 0.00 0.01 0.01 0.00 0.00 0.01 0.02 0.05 0.04 0.04 0.05 0.05 0.02 0.02 0.01 0.02 0.03 0.03 0.04 0.04 0.05 0.06 0.05 0.06 0.05 0.04 0.04 0.05 0.07 0.06 0.07 0.06 0.04 0.04 0.03 0.02 0.02 0.04
0.00 0.00 0.00 0.00 0.00 0.00 0.00 0.00 0.01 0.01 0.01 0.01 0.01 0.01 0.00 0.00 0.01 0.02 0.03 0.03 0.04 0.03 0.01 0.01 0.01 0.01 0.01 0.02 0.03 0.04 0.06 0.06 0.07 0.08 0.07 0.05 0.05 0.06 0.06 0.07 0.06 0.06 0.06 0.05 0.05 0.04 0.02 0.02 0.04
0.00 0.00 0.00 0.00 0.00 0.00 0.00 0.01 0.01 0.01 0.01 0.00 0.00 0.01 0.01 0.01 0.01 0.01 0.01 0.02 0.03 0.02 0.01 0.01 0.01 0.01 0.01 0.02 0.03 0.04 0.06 0.08 0.07 0.05 0.04 0.05 0.04 0.04 0.03 0.04 0.04 0.05 0.04 0.03 0.04 0.04 0.03 0.03 0.04
0.00 0.00 0.00 0.00 0.00 0.00 0.00 0.01 0.01 0.01 0.00 0.00 0.00 0.01 0.01 0.02 0.01 0.01 0.01 0.02 0.02 0.01 0.01 0.01 0.01 0.00 0.01 0.01 0.02 0.02 0.02 0.03 0.03 0.03 0.04 0.04 0.03 0.02 0.02 0.02 0.03 0.04 0.04 0.04 0.04 0.04 0.04 0.03 0.03
0.00 0.00 0.00 0.00 0.00 0.00 0.00 0.00 0.00 0.00 0.00 0.00 0.00 0.01 0.02 0.02 0.01 0.01 0.01 0.02 0.02 0.01 0.01 0.00 0.00 0.00 0.01 0.01 0.01 0.01 0.01 0.01 0.01 0.02 0.02 0.02 0.02 0.02 0.02 0.02 0.02 0.03 0.03 0.04 0.03 0.04 0.04 0.04 0.04
0.00 0.00 0.00 0.00 0.00 0.00 0.00 0.00 0.00 0.00 0.00 0.00 0.00 0.00 0.01 0.01 0.01 0.01 0.01 0.02 0.03 0.02 0.01 0.00 0.00 0.00 0.00 0.01 0.01 0.01 0.01 0.01 0.01 0.02 0.02 0.01 0.01 0.01 0.03 0.03 0.03 0.04 0.05 0.06 0.05 0.05 0.05 0.04 0.04
0.00 0.00 0.00 0.00 0.00 0.00 0.00 0.00 0.00 0.00 0.00 0.00 0.00 0.00 0.01 0.01 0.00 0.00 0.00 0.01 0.02 0.02 0.01 0.01 0.01 0.00 0.00 0.01 0.00 0.01 0.01 0.01 0.01 0.02 0.02 0.01 0.01 0.01 0.03 0.05 0.05 0.06 0.07 0.06 0.07 0.06 0.06 0.04 0.03
0.00 0.00 0.00 0.00 0.00 0.00 0.00 0.00 0.00 0.00 0.00 0.00 0.00 0.00 0.00 0.00 0.00 0.00 0.00 0.00 0.01 0.02 0.02 0.02 0.01 0.01 0.01 0.01 0.00 0.00 0.01 0.02 0.01 0.01 0.01 0.01 0.01 0.02 0.03 0.06 0.09 0.08 0.06 0.05 0.07 0.07 0.06 0.04 0.03
0.00 0.00 0.00 0.00 0.00 0.00 0.00 0.00 0.00 0.00 0.00 0.00 0.00 0.00 0.00 0.00 0.00 0.00 0.00 0.00 0.01 0.02 0.02 0.02 0.01 0.01 0.01 0.01 0.00 0.00 0.01 0.01 0.01 0.01 0.01 0.01 0.02 0.03 0.03 0.04 0.05 0.07 0.07 0.06 0.06 0.05 0.04 0.03 0.03
0.00 0.00 0.00 0.00 0.00 0.00 0.00 0.00 0.00 0.00 0.00 0.00 0.00 0.00 0.00 0.00 0.00 0.00 0.00 0.01 0.01 0.02 0.03 0.04 0.02 0.01 0.01 0.01 0.01 0.01 0.01 0.01 0.01 0.01 0.01 0.02 0.01 0.02 0.02 0.02 0.02 0.02 0.03 0.03 0.02 0.03 0.03 0.04 0.05
0.00 0.00 0.00 0.00 0.00 0.00 0.00 0.00 0.00 0.00 0.00 0.00 0.00 0.00 0.00 0.00 0.00 0.00 0.01 0.01 0.01 0.02 0.05 0.06 0.04 0.03 0.03 0.03 0.02 0.02 0.01 0.01 0.01 0.01 0.01 0.02 0.01 0.02 0.02 0.02 0.01 0.01 0.01 0.01 0.02 0.02 0.02 0.03 0.03
0.00 0.00 0.00 0.00 0.00 0.00 0.00 0.00 0.00 0.00 0.00 0.00 0.00 0.00 0.00 0.00 0.00 0.00 0.01 0.01 0.01 0.02 0.05 0.06 0.05 0.05 0.05 0.03 0.02 0.02 0.01 0.01 0.02 0.02 0.02 0.02 0.02 0.02 0.02 0.01 0.01 0.01 0.01 0.01 0.01 0.02 0.02 0.03 0.03
MSLP
1007.80 1009.01 1010.39 1011.76 1012.94 1013.81 1014.32 1014.47 1014.35 1014.08 1013.78 1013.58 1013.50 1013.57 1013.72 1013.90 1014.02 1014.04 1013.94 1013.73 1013.46 1013.20 1012.99 1012.86 1012.82 1012.84 1012.89 1012.91 1012.89 1012.82 1012.72 1012.61 1012.55 1012.57 1012.67 1012.86 1013.09 1013.34 1013.55 1013.71 1013.81 1013.84 1013.85 1013.87 1013.93 1014.04 1014.23 1014.46 1014.73
1008.19 1009.61 1011.13 1012.56 1013.72 1014.48 1014.82 1014.76 1014.42 1013.94 1013.46 1013.12 1012.96 1012.98 1013.14 1013.36 1013.55 1013.66 1013.65 1013.55 1013.38 1013.20 1013.07 1013.00 1012.99 1013.03 1013.08 1013.10 1013.07 1013.01 1012.92 1012.84 1012.82 1012.87 1013.01 1013.22 1013.47 1013.71 1013.93 1014.08 1014.17 1014.21 1014.23 1014.27 1014.35 1014.48 1014.67 1014.90 1015.15
1008.68 1010.24 1011.82 1013.24 1014.31 1014.94 1015.11 1014.86 1014.34 1013.71 1013.12 1012.70 1012.50 1012.51 1012.68 1012.93 1013.16 1013.32 1013.38 1013.34 1013.24 1013.14 1013.08 1013.08 1013.13 1013.22 1013.30 1013.36 1013.36 1013.31 1013.24 1013.18 1013.17 1013.23 1013.36 1013.56 1013.79 1014.02 1014.22 1014.36 1014.46 1014.53 1014.59 1014.67 1014.79 1014.95 1015.16 1015.39 1015.62
1009.28 1010.88 1012.45 1013.77 1014.71 1015.17 1015.17 1014.78 1014.15 1013.44 1012.81 1012.38 1012.19 1012.22 1012.41 1012.67 1012.92 1013.10 1013.17 1013.17 1013.12 1013.08 1013.09 1013.15 1013.28 1013.43 1013.58 1013.68 1013.72 1013.70 1013.65 1013.59 1013.58 1013.61 1013.71 1013.87 1014.06 1014.26 1014.44 1014.58 1014.71 1014.82 1014.93 1015.07 1015.25 1015.46 1015.69 1015.92 1016.14
1009.94 1011.51 1012.96 1014.13 1014.88 1015.17 1015.02 1014.54 1013.86 1013.16 1012.57 1012.20 1012.06 1012.14 1012.37 1012.64 1012.89 1013.05 1013.12 1013.13 1013.10 1013.09 1013.15 1013.28 1013.47 1013.70 1013.90 1014.05 1014.14 1014.15 1014.11 1014.05 1014.01 1014.01 1014.07 1014.18 1014.32 1014.48 1014.64 1014.79 1014.94 1015.10 1015.27 1015.48 1015.71 1015.96 1016.22 1016.47 1016.68
1010.60 1012.05 1013.32 1014.27 1014.82 1014.94 1014.69 1014.16 1013.51 1012.89 1012.42 1012.16 1012.14 1012.29 1012.56 1012.84 1013.08 1013.22 1013.27 1013.25 1013.23 1013.24 1013.33 1013.50 1013.74 1014.00 1014.25 1014.44 1014.56 1014.59 1014.57 1014.51 1014.45 1014.43 1014.45 1014.51 1014.62 1014.74 1014.88 1015.03 1015.20 1015.39 1015.61 1015.86 1016.14 1016.43 1016.71 1016.97 1017.18
1011.16 1012.42 1013.46 1014.18 1014.53 1014.50 1014.18 1013.67 1013.11 1012.63 1012.33 1012.23 1012.34 1012.60 1012.92 1013.23 1013.45 1013.57 1013.59 1013.55 1013.51 1013.53 1013.62 1013.81 1014.06 1014.35 1014.61 1014.82 1014.95 1015.00 1014.99 1014.94 1014.89 1014.86 1014.87 1014.91 1014.98 1015.09 1015.21 1015.35 1015.51 1015.71 1015.95 1016.22 1016.51 1016.81 1017.10 1017.35 1017.57
1011.52 1012.56 1013.36 1013.85 1014.01 1013.88 1013.53 1013.09 1012.66 1012.37 1012.26 1012.35 1012.61 1012.97 1013.35 1013.67 1013.90 1014.00 1014.00 1013.95 1013.91 1013.92 1014.01 1014.19 1014.43 1014.70 1014.95 1015.15 1015.29 1015.35 1015.36 1015.33 1015.31 1015.30 1015.33 1015.38 1015.45 1015.53 1015.63 1015.75 1015.89 1016.06 1016.27 1016.52 1016.79 1017.08 1017.35 1017.59 1017.81
1011.64 1012.47 1013.03 1013.32 1013.33 1013.13 1012.80 1012.46 1012.19 1012.09 1012.17 1012.43 1012.82 1013.27 1013.71 1014.06 1014.30 1014.40 1014.41 1014.37 1014.33 1014.34 1014.42 1014.58 1014.80 1015.03 1015.25 1015.43 1015.55 1015.62 1015.66 1015.68 1015.71 1015.76 1015.82 1015.90 1015.99 1016.07 1016.15 1016.22 1016.31 1016.43 1016.58 1016.77 1016.99 1017.23 1017.47 1017.69 1017.90
1011.56 1012.18 1012.54 1012.66 1012.57 1012.34 1012.07 1011.84 1011.73 1011.79 1012.03 1012.43 1012.92 1013.44 1013.92 1014.29 1014.54 1014.67 1014.70 1014.70 1014.69 1014.72 1014.81 1014.95 1015.13 1015.32 1015.50 1015.64 1015.75 1015.83 1015.90 1015.98 1016.07 1016.19 1016.32 1016.45 1016.56 1016.65 1016.70 1016.73 1016.76 1016.80 1016.87 1016.98 1017.13 1017.30 1017.50 1017.70 1017.89
1011.36 1011.80 1012.01 1012.01 1011.86 1011.64 1011.43 1011.31 1011.33 1011.52 1011.88 1012.35 1012.90 1013.44 1013.92 1014.31 1014.58 1014.74 1014.83 1014.87 1014.92 1014.99 1015.10 1015.24 1015.40 1015.56 1015.69 1015.81 1015.90 1015.99 1016.10 1016.23 1016.39 1016.58 1016.78 1016.97 1017.11 1017.20 1017.24 1017.23 1017.19 1017.15 1017.14 1017.17 1017.24 1017.36 1017.51 1017.68 1017.85
1011.18 1011.49 1011.58 1011.51 1011.34 1011.15 1011.00 1010.97 1011.08 1011.35 1011.75 1012.25 1012.78 1013.30 1013.76 1014.14 1014.43 1014.63 1014.78 1014.90 1015.02 1015.15 1015.29 1015.45 1015.60 1015.73 1015.84 1015.94 1016.02 1016.12 1016.26 1016.43 1016.66 1016.91 1017.16 1017.39 1017.56 1017.67 1017.69 1017.65 1017.57 1017.47 1017.40 1017.36 1017.38 1017.45 1017.57 1017.71 1017.88
1011.16 1011.38 1011.40 1011.29 1011.12 1010.96 1010.88 1010.91 1011.07 1011.36 1011.75 1012.20 1012.67 1013.13 1013.54 1013.89 1014.18 1014.42 1014.63 1014.82 1015.02 1015.21 1015.41 1015.59 1015.75 1015.87 1015.97 1016.05 1016.14 1016.24 1016.39 1016.60 1016.85 1017.14 1017.42 1017.68 1017.87 1017.99 1018.01 1017.96 1017.86 1017.74 1017.64 1017.58 1017.57 1017.62 1017.72 1017.86 1018.01
1011.42 1011.56 1011.54 1011.42 1011.28 1011.17 1011.13 1011.19 1011.36 1011.62 1011.94 1012.31 1012.69 1013.05 1013.39 1013.70 1013.98 1014.24 1014.49 1014.74 1015.00 1015.25 1015.48 1015.69 1015.87 1016.00 1016.10 1016.18 1016.27 1016.38 1016.53 1016.73 1016.98 1017.27 1017.55 1017.81 1018.01 1018.13 1018.17 1018.13 1018.05 1017.95 1017.86 1017.81 1017.81 1017.88 1017.99 1018.13 1018.29
1011.95 1012.04 1012.00 1011.90 1011.79 1011.72 1011.72 1011.80 1011.94 1012.15 1012.39 1012.65 1012.91 1013.17 1013.43 1013.69 1013.94 1014.21 1014.48 1014.76 1015.04 1015.32 1015.58 1015.80 1015.99 1016.13 1016.24 1016.33 1016.42 1016.52 1016.66 1016.84 1017.06 1017.31 1017.56 1017.80 1017.98 1018.11 1018.17 1018.17 1018.13 1018.08 1018.04 1018.04 1018.08 1018.18 1018.32 1018.48 1018.65
1012.67 1012.73 1012.70 1012.63 1012.57 1012.55 1012.58 1012.66 1012.77 1012.91 1013.06 1013.21 1013.37 1013.53 1013.72 1013.92 1014.15 1014.40 1014.66 1014.94 1015.21 1015.48 1015.72 1015.94 1016.12 1016.27 1016.39 1016.49 1016.58 1016.68 1016.79 1016.94 1017.10 1017.29 1017.49 1017.67 1017.84 1017.97 1018.05 1018.10 1018.13 1018.14 1018.17 1018.23 1018.34 1018.48 1018.65 1018.85 1019.03
1013.44 1013.50 1013.49 1013.47 1013.48 1013.52 1013.58 1013.66 1013.74 1013.81 1013.87 1013.93 1014.00 1014.10 1014.22 1014.39 1014.58 1014.81 1015.04 1015.28 1015.50 1015.72 1015.92 1016.09 1016.26 1016.40 1016.53 1016.64 1016.74 1016.83 1016.92 1017.02 1017.12 1017.23 1017.36 1017.49 1017.62 1017.74 1017.85 1017.95 1018.04 1018.14 1018.24 1018.36 1018.52 1018.70 1018.91 1019.13 1019.35
1014.10 1014.17 1014.22 1014.29 1014.38 1014.49 1014.60 1014.68 1014.73 1014.74 1014.72 1014.70 1014.71 1014.75 1014.85 1014.99 1015.16 1015.36 1015.55 1015.72 1015.87 1016.00 1016.12 1016.24 1016.36 1016.49 1016.62 1016.75 1016.87 1016.97 1017.04 1017.09 1017.13 1017.16 1017.21 1017.28 1017.37 1017.48 1017.62 1017.76 1017.91 1018.06 1018.23 1018.40 1018.59 1018.80 1019.03 1019.28 1019.52
1014.51 1014.64 1014.79 1014.98 1015.19 1015.38 1015.54 1015.62 1015.63 1015.58 1015.49 1015.40 1015.35 1015.37 1015.45 1015.58 1015.75 1015.92 1016.06 1016.17 1016.23 1016.26 1016.29 1016.33 1016.40 1016.51 1016.65 1016.80 1016.94 1017.05 1017.11 1017.14 1017.12 1017.09 1017.07 1017.08 1017.13 1017.23 1017.37 1017.55 1017.74 1017.94 1018.14 1018.34 1018.54 1018.75 1018.98 1019.24 1019.50
1014.64 1014.87 1015.17 1015.51 1015.86 1016.15 1016.36 1016.43 1016.39 1016.26 1016.08 1015.92 1015.82 1015.80 1015.87 1016.02 1016.19 1016.35 1016.46 1016.50 1016.49 1016.42 1016.36 1016.32 1016.34 1016.43 1016.58 1016.76 1016.93 1017.06 1017.14 1017.15 1017.10 1017.02 1016.94 1016.90 1016.91 1017.00 1017.14 1017.34 1017.55 1017.78 1017.99 1018.18 1018.38 1018.57 1018.78 1019.03 1019.30
1014.54 1014.93 1015.41 1015.94 1016.44 1016.84 1017.07 1017.12 1017.00 1016.75 1016.46 1016.19 1016.02 1015.96 1016.03 1016.19 1016.38 1016.55 1016.65 1016.65 1016.58 1016.44 1016.30 1016.20 1016.18 1016.26 1016.42 1016.62 1016.83 1017.00 1017.10 1017.11 1017.05 1016.93 1016.81 1016.73 1016.71 1016.77 1016.92 1017.11 1017.34 1017.58 1017.79 1017.97 1018.13 1018.29 1018.47 1018.69 1018.96
1014.34 1014.93 1015.63 1016.37 1017.03 1017.51 1017.76 1017.75 1017.50 1017.10 1016.65 1016.24 1015.96 1015.84 1015.89 1016.06 1016.28 1016.48 1016.59 1016.59 1016.49 1016.31 1016.13 1015.99 1015.94 1016.01 1016.18 1016.42 1016.67 1016.88 1017.00 1017.02 1016.95 1016.82 1016.67 1016.55 1016.50 1016.55 1016.68 1016.88 1017.12 1017.35 1017.55 1017.72 1017.86 1017.98 1018.12 1018.30 1018.55
1014.21 1015.02 1015.96 1016.90 1017.70 1018.25 1018.47 1018.36 1017.95 1017.35 1016.70 1016.12 1015.70 1015.50 1015.52 1015.69 1015.94 1016.18 1016.33 1016.36 1016.26 1016.08 1015.88 1015.72 1015.66 1015.73 1015.92 1016.18 1016.46 1016.70 1016.85 1016.88 1016.81 1016.66 1016.49 1016.35 1016.28 1016.30 1016.43 1016.63 1016.87 1017.11 1017.31 1017.47 1017.59 1017.69 1017.79 1017.94 1018.16
1014.28 1015.31 1016.47 1017.59 1018.50 1019.07 1019.23 1018.98 1018.38 1017.56 1016.68 1015.90 1015.33 1015.03 1015.00 1015.17 1015.46 1015.75 1015.96 1016.03 1015.98 1015.81 1015.62 1015.46 1015.40 1015.47 1015.66 1015.94 1016.24 1016.50 1016.67 1016.71 1016.64 1016.48 1016.29 1016.12 1016.03 1016.04 1016.16 1016.36 1016.61 1016.86 1017.08 1017.25 1017.37 1017.45 1017.53 1017.65 1017.83
1014.62 1015.84 1017.17 1018.41 1019.38 1019.93 1019.99 1019.58 1018.77 1017.72 1016.62 1015.65 1014.93 1014.53 1014.45 1014.62 1014.95 1015.30 1015.57 1015.71 1015.70 1015.58 1015.41 1015.27 1015.21 1015.28 1015.47 1015.75 1016.05 1016.32 1016.49 1016.54 1016.46 1016.29 1016.08 1015.90 1015.79 1015.78 1015.88 1016.08 1016.34 1016.61 1016.86 1017.05 1017.19 1017.29 1017.37 1017.47 1017.61
1015.19 1016.53 1017.95 1019.25 1020.21 1020.70 1020.64 1020.05 1019.05 1017.80 1016.52 1015.39 1014.55 1014.07 1013.96 1014.14 1014.50 1014.90 1015.24 1015.45 1015.51 1015.44 1015.30 1015.17 1015.11 1015.18 1015.35 1015.62 1015.91 1016.17 1016.34 1016.38 1016.30 1016.13 1015.91 1015.71 1015.58 1015.55 1015.64 1015.83 1016.10 1016.39 1016.66 1016.90 1017.08 1017.20 1017.30 1017.39 1017.50
1015.88 1017.26 1018.69 1019.95 1020.84 1021.22 1021.02 1020.29 1019.13 1017.74 1016.33 1015.10 1014.19 1013.67 1013.55 1013.75 1014.14 1014.61 1015.01 1015.28 1015.39 1015.37 1015.27 1015.15 1015.10 1015.15 1015.31 1015.56 1015.83 1016.08 1016.24 1016.28 1016.20 1016.02 1015.80 1015.59 1015.44 1015.39 1015.46 1015.65 1015.91 1016.21 1016.51 1016.78 1017.00 1017.17 1017.29 1017.38 1017.48
1016.56 1017.88 1019.22 1020.37 1021.12 1021.36 1021.03 1020.17 1018.92 1017.45 1015.99 1014.73 1013.82 1013.31 1013.21 1013.44 1013.87 1014.38 1014.84 1015.17 1015.33 1015.35 1015.28 1015.19 1015.14 1015.18 1015.33 1015.55 1015.80 1016.03 1016.19 1016.24 1016.17 1016.00 1015.78 1015.57 1015.42 1015.35 1015.40 1015.56 1015.80 1016.10 1016.41 1016.70 1016.96 1017.16 1017.31 1017.42 1017.51
1017.09 1018.26 1019.43 1020.39 1020.97 1021.05 1020.59 1019.66 1018.36 1016.90 1015.47 1014.26 1013.39 1012.94 1012.88 1013.15 1013.62 1014.16 1014.66 1015.03 1015.24 1015.30 1015.27 1015.21 1015.18 1015.23 1015.36 1015.57 1015.82 1016.04 1016.20 1016.26 1016.21 1016.07 1015.88 1015.68 1015.52 1015.44 1015.46 1015.59 1015.80 1016.07 1016.37 1016.66 1016.93 1017.16 1017.34 1017.47 1017.57
1017.42 1018.38 1019.31 1020.04 1020.41 1020.33 1019.77 1018.79 1017.52 1016.12 1014.78 1013.67 1012.89 1012.51 1012.51 1012.80 1013.30 1013.86 1014.37 1014.77 1015.03 1015.14 1015.17 1015.15 1015.16 1015.23 1015.38 1015.60 1015.84 1016.07 1016.24 1016.33 1016.31 1016.21 1016.06 1015.88 1015.74 1015.65 1015.65 1015.73 1015.90 1016.12 1016.38 1016.65 1016.91 1017.14 1017.34 1017.49 1017.60
Thickness
5832 5828 5822 5808 5782 5753 5742 5751 5760 5758 5757 5763 5766 5761 5751 5743 5739 5734 5752 5759 5759 5758 5757 5756 5755 5755 5754 5754 5754 5754 5755 5755 5755 5755 5755 5755 5755 5755 5755 5755 5755 5754 5753 5753 5752 5751 5750 5749 5748
5835 5829 5817 5797 5761 5733 5739 5755 5756 5760 5765 5769 5767 5761 5753 5747 5752 5752 5755 5759 5759 5757 5756 5755 5754 5753 5753 5753 5753 5753 5753 5753 5753 5753 5753 5753 5753 5753 5753 5753 5753 5752 5752 5751 5750 5749 5748 5747 5747
5837 5831 5806 5781 5755 5740 5745 5759 5761 5768 5773 5771 5763 5762 5755 5750 5755 5756 5759 5760 5758 5756 5755 5754 5753 5752 5752 5751 5751 5751 5751 5751 5751 5751 5751 5751 5751 5751 5751 5751 5750 5750 5750 5749 5748 5748 5747 5746 5745
5835 5818 5800 5773 5757 5762 5764 5766 5770 5769 5771 5771 5764 5756 5758 5764 5762 5762 5763 5761 5757 5755 5754 5753 5752 5751 5750 5750 5750 5750 5750 5750 5750 5750 5750 5749 5749 5749 5749 5749 5748 5748 5748 5747 5747 5746 5745 5745 5744
5832 5807 5779 5760 5763 5771 5775 5777 5776 5768 5766 5766 5763 5752 5752 5763 5767 5765 5762 5760 5756 5754 5753 5752 5750 5750 5749 5748 5748 5748 5748 5748 5748 5748 5748 5747 5747 5747 5747 5747 5746 5746 5746 5745 5745 5744 5744 5743 5743
5816 5797 5763 5753 5764 5773 5778 5781 5776 5768 5766 5766 5762 5752 5750 5763 5764 5763 5762 5759 5756 5753 5752 5750 5749 5749 5748 5748 5747 5747 5747 5747 5746 5746 5746 5746 5745 5745 5745 5745 5745 5744 5744 5744 5743 5743 5743 5742 5742
5810 5788 5768 5766 5766 5770 5777 5783 5775 5769 5766 5768 5768 5752 5752 5759 5763 5763 5760 5757 5755 5753 5751 5749 5748 5748 5747 5747 5746 5746 5746 5745 5745 5745 5745 5744 5744 5744 5743 5743 5743 5743 5743 5742 5742 5741 5741 5741 5741
5822 5795 5776 5771 5769 5771 5784 5785 5783 5777 5772 5780 5776 5755 5751 5761 5765 5762 5758 5755 5753 5752 5750 5749 5748 5747 5746 5746 5745 5745 5745 5744 5744 5743 5743 5743 5743 5742 5742 5742 5742 5742 5741 5741 5741 5740 5740 5740 5740
5830 5790 5772 5776 5776 5779 5789 5784 5786 5791 5782 5781 5780 5773 5771 5770 5765 5759 5754 5751 5750 5750 5750 5749 5747 5746 5745 5745 5744 5744 5743 5743 5742 5742 5742 5741 5741 5741 5741 5741 5741 5741 5741 5741 5740 5740 5739 5739 5739
5819 5786 5789 5799 5797 5792 5793 5788 5787 5783 5776 5773 5774 5776 5776 5770 5763 5756 5752 5749 5748 5748 5749 5749 5748 5746 5745 5744 5743 5743 5742 5742 5741 5741 5740 5740 5740 5740 5740 5740 5740 5740 5740 5740 5740 5739 5739 5738 5738
5821 5803 5808 5810 5809 5804 5794 5791 5793 5780 5770 5774 5772 5772 5772 5768 5762 5757 5754 5752 5751 5751 5751 5750 5748 5747 5745 5744 5743 5742 5741 5741 5740 5740 5739 5739 5739 5739 5739 5739 5739 5739 5739 5739 5739 5738 5738 5738 5737
5821 5818 5818 5813 5814 5806 5797 5793 5788 5784 5783 5791 5787 5781 5774 5767 5762 5759 5755 5754 5754 5752 5752 5751 5750 5748 5746 5745 5743 5742 5741 5741 5740 5739 5739 5739 5739 5739 5739 5738 5739 5739 5738 5738 5738 5737 5737 5737 5737
5821 5817 5819 5817 5813 5807 5801 5794 5790 5788 5794 5795 5790 5782 5775 5769 5766 5763 5761 5757 5755 5753 5753 5752 5751 5749 5747 5745 5744 5742 5741 5741 5740 5740 5739 5739 5738 5738 5738 5738 5738 5738 5738 5738 5737 5737 5737 5737 5736
5822 5818 5815 5813 5811 5808 5797 5793 5790 5789 5795 5791 5786 5780 5777 5772 5768 5764 5761 5758 5756 5755 5754 5754 5752 5750 5748 5746 5744 5743 5742 5741 5741 5740 5740 5739 5739 5738 5738 5738 5738 5738 5738 5738 5737 5737 5737 5736 5736
5826 5811 5805 5807 5807 5805 5799 5785 5788 5795 5795 5788 5785 5781 5779 5775 5771 5767 5765 5762 5760 5758 5756 5755 5753 5751 5749 5747 5746 5744 5743 5742 5741 5741 5741 5740 5739 5738 5738 5737 5737 5738 5738 5738 5737 5736 5736 5736 5735
5816 5797 5786 5800 5805 5805 5793 5773 5792 5798 5793 5785 5784 5782 5779 5776 5774 5772 5769 5765 5763 5761 5758 5757 5756 5753 5751 5749 5747 5745 5743 5742 5741 5741 5741 5740 5740 5739 5738 5737 5737 5737 5738 5737 5736 5736 5734 5734 5734
5794 5781 5782 5794 5806 5803 5792 5781 5794 5799 5793 5786 5784 5782 5779 5776 5775 5774 5773 5769 5766 5763 5761 5758 5757 5754 5752 5750 5748 5746 5744 5743 5742 5741 5741 5740 5740 5739 5738 5738 5737 5737 5737 5737 5736 5735 5734 5732 5732
5783 5784 5786 5788 5802 5800 5790 5787 5795 5797 5793 5787 5785 5782 5780 5777 5777 5777 5775 5772 5769 5766 5763 5761 5758 5756 5754 5751 5749 5746 5745 5744 5743 5742 5741 5741 5740 5739 5738 5737 5737 5736 5736 5735 5735 5734 5733 5732 5731
5803 5794 5789 5795 5808 5798 5789 5788 5793 5796 5793 5788 5785 5783 5781 5781 5782 5780 5777 5775 5770 5767 5764 5762 5759 5757 5755 5751 5748 5746 5744 5744 5743 5743 5742 5742 5741 5740 5739 5738 5737 5737 5736 5735 5735 5733 5731 5730 5730
5805 5795 5791 5797 5807 5799 5788 5788 5796 5798 5797 5796 5792 5788 5786 5784 5782 5781 5778 5775 5772 5768 5766 5763 5762 5759 5757 5754 5752 5749 5747 5745 5745 5744 5743 5742 5742 5741 5740 5739 5738 5737 5736 5735 5734 5732 5730 5728 5728
5803 5798 5795 5793 5797 5796 5789 5783 5790 5799 5803 5802 5800 5797 5793 5790 5785 5783 5780 5777 5774 5770 5768 5767 5764 5762 5760 5757 5754 5751 5748 5746 5744 5743 5743 5743 5742 5741 5740 5740 5738 5737 5736 5735 5734 5732 5730 5727 5727
5797 5813 5808 5798 5783 5770 5781 5760 5784 5793 5795 5799 5800 5798 5797 5796 5793 5788 5784 5780 5778 5775 5772 5769 5766 5764 5762 5759 5755 5751 5747 5744 5743 5743 5743 5743 5742 5741 5740 5740 5739 5737 5736 5735 5734 5733 5732 5729 5726
5808 5815 5805 5793 5777 5767 5771 5762 5774 5790 5790 5798 5804 5804 5803 5801 5798 5794 5790 5786 5783 5780 5776 5771 5768 5765 5763 5760 5757 5753 5749 5747 5746 5745 5744 5743 5742 5741 5740 5739 5738 5736 5735 5734 5733 5733 5732 5730 5727
5813 5801 5789 5776 5766 5752 5765 5760 5766 5782 5794 5804 5809 5809 5808 5805 5802 5798 5795 5791 5786 5783 5779 5774 5770 5767 5765 5762 5759 5755 5751 5749 5746 5744 5743 5741 5740 5740 5739 5738 5737 5736 5734 5733 5732 5732 5731 5729 5727
5804 5776 5750 5747 5738 5745 5765 5762 5771 5802 5810 5812 5813 5813 5812 5809 5805 5800 5796 5792 5788 5784 5781 5777 5772 5769 5766 5764 5760 5757 5754 5751 5747 5745 5742 5740 5739 5738 5738 5737 5735 5734 5733 5732 5731 5730 5729 5728 5726
5795 5782 5750 5738 5736 5744 5759 5760 5787 5814 5820 5821 5820 5818 5814 5810 5807 5804 5801 5796 5792 5788 5784 5780 5775 5771 5769 5765 5762 5759 5756 5752 5749 5746 5744 5741 5739 5739 5738 5736 5734 5733 5732 5731 5730 5728 5727 5726 5725
5789 5778 5778 5752 5745 5741 5750 5769 5796 5815 5816 5817 5817 5816 5813 5812 5810 5807 5804 5800 5795 5791 5787 5783 5778 5774 5771 5768 5764 5760 5757 5753 5750 5748 5745 5742 5740 5738 5737 5735 5733 5731 5730 5728 5727 5725 5724 5723 5722
5799 5780 5761 5747 5732 5733 5751 5762 5775 5800 5807 5812 5812 5813 5814 5813 5811 5809 5805 5801 5798 5794 5790 5786 5781 5777 5773 5769 5766 5762 5758 5755 5751 5748 5744 5742 5740 5737 5735 5733 5731 5729 5727 5726 5725 5723 5721 5720 5719
5783 5774 5759 5745 5746 5734 5736 5759 5803 5807 5813 5813 5815 5817 5816 5814 5813 5810 5807 5804 5800 5795 5791 5786 5782 5778 5774 5770 5766 5762 5758 5755 5751 5747 5744 5742 5739 5736 5733 5730 5728 5726 5724 5723 5721 5719 5718 5716 5715
5795 5780 5764 5753 5746 5740 5742 5764 5819 5817 5819 5819 5818 5819 5818 5817 5815 5811 5807 5803 5799 5795 5790 5786 5783 5778 5775 5771 5767 5763 5759 5755 5751 5747 5744 5741 5738 5734 5731 5728 5726 5723 5721 5719 5718 5716 5714 5712 5710